This is the latest recevied weather packets stored in our database for station/object SQ5LTL-2. If no packets are shown the sender has not sent any weather packets the latest 10 day(s).
| Time | Temp. | Humidity | Pressure | Rain* | Wind** | Luminosity | Snow |
|---|---|---|---|---|---|---|---|
| 1777474523 | 7.78° C | 42% | 1028.5 hPa | 0 mm | - | 233 W/m² | - |
| 1777474221 | 7.78° C | 42% | 1028.5 hPa | 0 mm | - | 315 W/m² | - |
| 1777473920 | 7.78° C | 42% | 1028.6 hPa | 0 mm | - | 306 W/m² | - |
| 1777473617 | 7.78° C | 42% | 1028.4 hPa | 0 mm | - | 355 W/m² | - |
| 1777473316 | 7.78° C | 42% | 1028.4 hPa | 0 mm | - | 330 W/m² | - |
| 1777473034 | 7.22° C | 43% | 1028.5 hPa | 0 mm | - | 320 W/m² | - |
| 1777472733 | 7.22° C | 44% | 1028.7 hPa | 0 mm | - | 316 W/m² | - |
| 1777472431 | 6.67° C | 46% | 1028.7 hPa | 0 mm | - | 317 W/m² | - |
| 1777472131 | 7.22° C | 45% | 1028.7 hPa | 0 mm | - | 184 W/m² | - |
| 1777471828 | 6.67° C | 46% | 1028.6 hPa | 0 mm | - | 199 W/m² | - |
| 1777471527 | 6.67° C | 46% | 1028.7 hPa | 0 mm | - | 200 W/m² | - |
| 1777471227 | 6.67° C | 46% | 1028.6 hPa | 0 mm | - | 168 W/m² | - |
| 1777470924 | 6.67° C | 47% | 1028.6 hPa | 0 mm | - | 152 W/m² | - |
| 1777470622 | 6.67° C | 47% | 1028.5 hPa | 0 mm | - | 146 W/m² | - |
| 1777470322 | 6.67° C | 47% | 1028.6 hPa | 0 mm | - | 157 W/m² | - |
| 1777470020 | 6.67° C | 47% | 1028.5 hPa | 0 mm | - | 142 W/m² | - |
| 1777469719 | 6.67° C | 46% | 1028.6 hPa | 0 mm | - | 125 W/m² | - |
| 1777469416 | 7.22° C | 46% | 1028.5 hPa | 0 mm | - | 113 W/m² | - |
| 1777469135 | 7.22° C | 46% | 1028.4 hPa | 0 mm | - | 128 W/m² | - |
| 1777468834 | 7.22° C | 45% | 1028.5 hPa | 0 mm | - | 201 W/m² | - |
| 1777468533 | 7.22° C | 46% | 1028.4 hPa | 0 mm | - | 253 W/m² | - |
| 1777468231 | 6.67° C | 46% | 1028.3 hPa | 0 mm | - | 230 W/m² | - |
| 1777467929 | 6.67° C | 46% | 1028.2 hPa | 0 mm | - | 186 W/m² | - |
| 1777467627 | 6.67° C | 47% | 1028.4 hPa | 0 mm | - | 172 W/m² | - |
| 1777467327 | 6.67° C | 46% | 1028.4 hPa | 0 mm | - | 218 W/m² | - |
* Rain latest hour (hover to see other rain measurements)
** Current wind speed in m/s (hover to see current wind gust speed)